Regional Weather Roundup
Issued by NWS

Home | Current Version | Previous Version | Graphics & Text | Print | Product List | Glossary On
Versions: 1 2 3 4 5 6 7 8 9 10 11 12 13 14 15 16 17 18 19 20 21 22 23 24 25 26 27 28
000
ASUS45 KSLC 160310
RWRUT

UTAH REGIONAL WEATHER ROUNDUP
NATIONAL WEATHER SERVICE SALT LAKE CITY UT
900 PM MDT SUN OCT 15 2017

UTZ001>011-023>025-160400-

NORTHERN UTAH

CITY           SKY/WX    TMP DP  RH WIND       PRES   REMARKS
BRIGHAM CITY   PTCLDY    40  24  52 CALM      30.43S
HILL AFB       CLEAR     46  17  31 CALM      30.41S
LOGAN          PTCLDY    41  24  51 CALM      30.42R
OGDEN          PTCLDY    42  20  41 SE3       30.41S
SALT LAKE CITY PTCLDY    46  31  55 CALM      30.42R
TOOELE VALLEY  PTCLDY    32  25  74 S5        30.43R WCI  27
WENDOVER       PTCLDY    42  17  36 W3        30.43R
WEST JORDAN    PTCLDY    42  29  59 CALM      30.43S

$$

UTZ011>015-024>027-160400-

CENTRAL/NORTHEAST UTAH

CITY           SKY/WX    TMP DP  RH WIND       PRES   REMARKS
PROVO AIRPORT  PTCLDY    41  28  60 CALM      30.42R
MOAB/CANYONLAN CLEAR     43   4  19 CALM      30.43R
DELTA          PTCLDY    41  18  38 E3        30.41R
PRICE          CLEAR     41   2  19 N12       30.47R
ROOSEVELT      CLOUDY    34  19  55 SW3       30.48R
VERNAL         CLOUDY    41  15  35 W6        30.46R

$$

UTZ013>016-019>022-027-160400-

SOUTHERN UTAH

CITY           SKY/WX    TMP DP  RH WIND       PRES   REMARKS
BRYCE CANYON   CLEAR     27   1  32 SW6       30.53R WCI  20
CEDAR CITY     CLEAR     45  13  27 SE8       30.41R
MILFORD        CLEAR     39  10  30 NW5       30.41R
ST GEORGE      CLEAR     62   9  12 CALM      30.29R
HANKSVILLE     CLEAR     45   9  23 E3        30.46R
BLANDING         N/A     41   7  25 CALM      30.53S

$$

REGIONAL REPORTS     COLORADO/ARIZONA

CITY           SKY/WX    TMP DP  RH WIND       PRES   REMARKS
CRAIG, CO      CLOUDY    31  19  61 S3        30.49R
GRAND JUNCTION CLEAR     43  11  27 CALM      30.44R
RIFLE, CO      CLEAR     42  18  37 SE6       30.47R
MONTROSE, CO   CLOUDY    41  19  41 SE7       30.50R
CORTEZ, CO     CLEAR     36  18  48 E9        30.48R WCI  29
COLORADO CITY    N/A     54   1  12 E5        30.41R
PAGE, AZ       PTCLDY    53  16  23 CALM      30.40R
GRAND CANYON   CLEAR     33  -8  17 CALM      30.47R
KINGMAN, AZ    CLEAR     58  15  18 E9        30.27R
FLAGSTAFF, AZ  PTCLDY    38  -1  19 CALM      30.50R

$$

REGIONAL REPORTS    NEVADA/IDAHO/WYOMING

CITY           SKY/WX    TMP DP  RH WIND       PRES   REMARKS
LAS VEGAS, NV  CLEAR     71  17  12 SW3       30.22R
ELY, NY        CLEAR     36   3  25 S9        30.43R WCI  29
ELKO, NV       PTCLDY    42  13  30 CALM      30.37R
POCATELLO, ID  CLOUDY    39  29  67 VRB3      30.40S
BURLEY, ID     MOCLDY    42  25  50 E5        30.35S
FORT BRIDGER,    N/A     48  12  23 N3        30.49S
EVANSTON, WY   CLOUDY    50  13  22 CALM      30.46S
ROCK SPRINGS,  CLOUDY    41  10  28 SW8       30.45S
KEMMERER, WY   CLOUDY    41  18  38 NW10      30.48S

$$




USA.gov is the U.S. government's official web portal to all federal, state and local government web resources and services.